Regional Weather Roundup
Issued by NWS

Home | Current Version | Previous Version | Graphics & Text | Print | Product List | Glossary On
Versions: 1 2 3 4 5 6 7 8 9 10 11 12 13 14 15 16 17 18 19 20 21 22 23 24 25 26 27 28 29 30 31 32 33 34 35 36 37 38 39 40 41 42 43 44 45 46 47 48 49 50
000
ASUS43 KFSD 181902
RWRSD

WEATHER ROUNDUP FOR SOUTH DAKOTA
NATIONAL WEATHER SERVICE SIOUX FALLS SD
200 PM CDT SAT APR 18 2015

NOTE: "FAIR" INDICATES FEW OR NO CLOUDS BELOW 12,000 FEET WITH NO
SIGNIFICANT WEATHER AND/OR OBSTRUCTIONS TO VISIBILITY.


SDZ001>005-009-010-012>017-182000-
NORTHWEST AND NORTH CENTRAL SOUTH DAKOTA

CITY           SKY/WX    TMP DP  RH WIND       PRES   REMARKS
BUFFALO          N/A     60  38  43 S10       29.88F
FAITH            N/A     53  40  61 S5        29.95F
MOBRIDGE       CLOUDY    63  25  23 S6        29.92F
$$

SDZ012>016-024>037-041>051-057-063-072>074-182000-
SOUTHWEST AND SOUTH CENTRAL SOUTH DAKOTA

CITY           SKY/WX    TMP DP  RH WIND       PRES   REMARKS
RAPID CTY ARPT CLOUDY    47  43  86 N13       29.94F
PIERRE         LGT RAIN  54  40  59 NE9       29.90F
CUSTER         CLOUDY    41  37  86 N10       29.93F
ELLSWORTH AFB  LGT RAIN  47  44  90 N12       29.93F
PHILIP         CLOUDY    54  45  71 NE6       29.90F
PINE RIDGE     CLOUDY    49  44  83 CALM      29.92F
WINNER         CLOUDY    58  51  78 SE8       29.88F
$$

SDZ004>011-016>023-039-040-182000-
NORTHEAST SOUTH DAKOTA

CITY           SKY/WX    TMP DP  RH WIND       PRES   REMARKS
ABERDEEN       CLOUDY    74  24  15 S14G20    29.91F
WATERTOWN      PTSUNNY   71  28  20 E12       29.93F
BROOKINGS      CLOUDY    68  36  30 SE18      29.93F
SISSETON         N/A     73  27  18 SE13G23   29.93F
$$

SDZ017-020-022-023-036>040-048>070-182000-
SOUTHEAST SOUTH DAKOTA

CITY           SKY/WX    TMP DP  RH WIND       PRES   REMARKS
SIOUX FALLS    LGT RAIN  59  50  72 S7        29.93S
HURON          CLOUDY    64  39  39 S17G24    29.90F
MITCHELL       LGT RAIN  53  51  93 NE9       29.90F FOG
YANKTON        CLOUDY    55  52  88 E5        29.88S
$$

ABBREVIATIONS USED IN REMARKS
   TC - TEMPERATURE IN CELSIUS
  WCI - WIND CHILL INDEX
   HX - HEAT INDEX
  VSB - VISIBILITY



USA.gov is the U.S. government's official web portal to all federal, state and local government web resources and services.